[[{"header":{"parameterUnit":"m.s-1","parameterCategory":1,"la1":30.2991,"la2":30.254,"lo1":-89.0895,"lo2":-89.0444,"dx":0.0017,"dy":0.0017,"nx":28,"ny":28,"refTime":"2023-02-06T15:00:00:Z","depth":0,"parameterNumber":2,"parameterNumberName":"U-component_of_WINDS"},"data":[0,0,0,0,0,0,0,0,0,0,0,0,0,0,0,0,0,0,0,0,0,0,0,0,0,0,0,0,0,0,0,0,0,0,0,0,0,0,0,0,0,0,0,0,0,0,0,0,0,0,0,0,0,0,0,0,0,0,-3.448,-3.4481,0,-3.4538,-3.4539,-3.4539,-3.449,-3.4488,-3.4486,-3.4484,-3.4544,-3.4547,-3.4551,0,0,0,0,0,0,0,0,0,0,0,0,0,-3.433,-3.4333,-3.448,-3.4481,-3.4482,-3.4538,-3.4539,-3.4539,-3.4491,-3.4488,-3.4486,-3.4483,-3.4543,-3.4547,-3.4551,0,0,0,0,0,0,0,0,0,0,0,0,0,-3.4392,-3.4334,-3.448,-3.4464,-3.4463,-3.4538,-3.4539,-3.454,-3.4491,-3.4488,-3.4485,-3.4482,-3.4541,-3.4546,-3.4551,-3.4645,0,0,-3.4567,-3.457,0,0,0,0,0,0,0,0,-3.4388,-3.4397,-3.4466,-3.4465,-3.4465,-3.4504,-3.4507,-3.4575,-3.4492,-3.4481,-3.4484,-3.4481,-3.4533,-3.4539,-3.4556,-3.4648,-3.465,-3.4568,-3.4571,-3.4573,-3.4575,0,0,0,0,0,0,0,-3.4384,-3.4395,-3.4503,-3.4467,-3.4466,-3.4455,-3.446,-3.452,-3.4523,-3.4481,-3.4478,-3.4485,-3.4532,-3.4551,-3.4557,-3.4651,-3.4568,-3.4572,-3.4576,-3.4578,-3.4824,-3.4827,0,0,0,0,0,0,-3.4381,-3.4391,-3.4501,-3.4505,-3.4418,-3.446,-3.4466,-3.4494,-3.4522,-3.4524,-3.4488,-3.4483,-3.4544,-3.4551,-3.4559,-3.4671,-3.4573,-3.4578,-3.4581,-3.4821,-3.4825,-3.4828,0,0,0,0,0,0,-3.4378,-3.4392,-3.4499,-3.4447,-3.446,-3.4466,-3.4498,-3.4497,-3.4516,-3.4527,-3.4528,-3.4507,-3.4542,-3.4552,-3.4624,-3.4672,-3.458,-3.4585,-3.4817,-3.4822,-3.4827,-3.4896,0,0,0,0,0,0,-3.4374,-3.4391,-3.4426,-3.4448,-3.4463,-3.4563,-3.4501,-3.45,-3.4525,-3.4519,-3.4545,-3.4547,-3.454,-3.4617,-3.4629,-3.4678,-3.4589,-3.4812,-3.4819,-3.4825,-3.4889,-3.4902,-3.4914,0,0,0,0,0,-3.4369,-3.4443,-3.4428,-3.4441,-3.4507,-3.4566,-3.4574,-3.4565,-3.4529,-3.4565,-3.4573,-3.4546,-3.4665,-3.4625,-3.4638,-3.4689,-3.4809,-3.4817,-3.4824,-3.4883,-3.49,-3.4914,0,0,0,0,0,0,-3.4425,-3.4445,-3.4429,-3.4512,-3.4538,-3.4557,-3.4602,-3.4582,-3.4618,-3.4611,-3.4598,-3.4605,-3.4681,-3.4693,-3.4647,-3.4782,-3.4732,-3.4742,-3.4772,-3.4787,-3.48,-3.4795,-3.4594,0,0,0,0,0,-3.4448,-3.4493,-3.4508,-3.4581,-3.4594,-3.4596,-3.4621,-3.4612,-3.4638,-3.4648,-3.4661,-3.4687,-3.4731,-3.476,-3.48,-3.4891,-3.4896,-3.4933,-3.4945,-3.4955,-3.4965,-3.5014,-3.5031,-3.4854,-3.4853,-3.4853,0,0,-3.4494,-3.451,-3.454,-3.4592,-3.4611,-3.4659,-3.4605,-3.4658,-3.4694,-3.4656,-3.4726,-3.4736,-3.4765,-3.4847,-3.4884,-3.4859,-3.5015,-3.4965,-3.4973,-3.4977,-3.5024,-3.5041,-3.5056,-3.4859,-3.4858,-3.4857,0,0,-3.4602,-3.4619,-3.4682,-3.4702,-3.4731,-3.4732,-3.4747,-3.477,-3.4776,-3.4845,-3.4818,-3.4861,-3.4936,-3.4958,-3.4979,-3.5099,-3.5076,-3.5112,-3.5177,-3.5226,-3.524,-3.5252,-3.5295,-3.5311,-3.5122,-3.5122,-3.5122,0,-3.4656,-3.4727,-3.4716,-3.4772,-3.4796,-3.4765,-3.4828,-3.4848,-3.4889,-3.4907,-3.4879,-3.4973,-3.499,-3.5078,-3.5107,-3.5125,-3.5142,-3.5109,-3.5238,-3.5251,-3.5262,-3.5303,-3.5319,-3.5126,-3.5126,-3.5125,-3.5125,0,-3.4792,-3.4842,-3.4889,-3.493,-3.4959,-3.5018,-3.5017,-3.5049,-3.5038,-3.5042,-3.5114,-3.5134,-3.5179,-3.5199,-3.5188,-3.5286,-3.5269,-3.524,-3.5189,-3.5283,-3.5322,-3.5337,-3.5132,-3.5131,-3.5129,-3.5128,0,0,-3.4936,-3.4971,-3.4989,-3.5007,-3.5038,-3.5077,-3.5135,-3.5179,-3.5207,-3.5237,-3.5286,-3.5351,-3.5325,-3.5349,-3.5341,-3.5384,-3.5478,-3.5349,-3.535,-3.5373,-3.5587,-3.5608,-3.5627,-3.5463,-3.5466,-3.5469,-3.5585,0,-3.5046,-3.5147,-3.514,-3.5236,-3.5282,-3.5255,-3.5306,-3.5331,-3.5337,-3.5378,-3.5385,-3.5432,-3.5393,-3.5407,-3.5449,-3.5458,-3.5521,-3.5449,-3.5509,-3.5511,-3.5502,-3.5647,-3.5669,-3.5778,-3.5599,-3.5602,-3.5604,0,-3.5187,-3.5222,-3.5323,-3.5348,-3.5367,-3.5413,-3.5454,-3.5493,-3.5522,-3.5523,-3.5551,-3.5536,-3.5596,-3.5545,-3.5628,-3.5579,-3.5604,-3.5612,-3.5616,-3.5621,-3.5563,-3.5655,-3.5812,-3.5828,-3.5627,-3.5625,-3.5624,0,-3.5282,-3.5355,-3.5425,-3.5442,-3.5473,-3.5506,-3.5521,-3.5546,-3.5573,-3.5609,-3.5627,-3.5669,-3.5692,-3.5726,-3.5723,-3.5686,-3.5808,-3.5756,-3.5812,-3.5812,-3.5838,-3.5836,-3.6,-3.5854,-3.5854,-3.5854,-3.5853,0,-3.5406,-3.5468,-3.5468,-3.5511,-3.5581,-3.5573,-3.5643,-3.5654,-3.5677,-3.5722,-3.5701,-3.5744,-3.5738,-3.5782,-3.5781,-3.585,-3.5861,-3.5864,-3.5863,-3.5866,-3.5866,-3.5881,-3.5874,-3.5858,-3.5857,-3.5856,-3.5856,0,-3.5523,-3.5526,-3.56,-3.5624,-3.5632,-3.5682,-3.5703,-3.5744,-3.5749,-3.5807,-3.582,-3.5828,-3.5879,-3.588,-3.5937,-3.5937,-3.6021,-3.6012,-3.6012,-3.601,-3.6066,-3.606,-3.6246,-3.627,-3.6108,-3.611,-3.6111,0,-3.5601,-3.5649,-3.5679,-3.5707,-3.5724,-3.5771,-3.5799,-3.5794,-3.5824,-3.5861,-3.5898,-3.5946,-3.5984,-3.6066,-3.6078,-3.6122,-3.6114,-3.6176,-3.612,-3.6122,-3.6115,-3.6112,-3.6117,-3.6186,-3.6188,-3.6189,-3.6191,0,-3.574,-3.574,-3.5781,-3.5823,-3.5857,-3.5891,-3.5921,-3.5946,-3.5945,-3.598,-3.6031,-3.6061,-3.6121,-3.6169,-3.6213,-3.6228,-3.621,-3.6208,-3.6223,-3.6227,-3.6225,-3.6227,-3.6041,-3.6204,-3.6202,-3.6201,-3.6201,-3.62,-3.584,-3.5882,-3.591,-3.5957,-3.5979,-3.6009,-3.6049,-3.606,-3.6103,-3.6151,-3.6145,-3.6203,-3.6231,-3.6288,-3.6307,-3.6353,-3.6331,-3.6353,-3.6359,-3.6364,-3.637,-3.6218,-3.6361,-3.636,-3.636,-3.636,-3.6359,0,-3.5978,-3.5995,-3.6038,-3.6082,-3.612,-3.61,-3.6133,-3.6166,-3.6217,-3.6245,-3.6284,-3.6343,-3.6391,-3.6407,-3.6453,-3.6487,-3.648,-3.6499,-3.6496,-3.6501,-3.6387,-3.6369,-3.6504,-3.6504,-3.6504,-3.6504,-3.6504,-3.6504,-3.6054,-3.6123,-3.6127,-3.6208,-3.6224,-3.628,-3.6301,-3.6329,-3.6352,-3.6419,-3.6459,-3.6469,-3.6493,-3.6541,-3.6585,-3.6588,-3.6606,-3.663,-3.663,-3.6523,-3.6508,-3.6494,-3.6478,-3.6634,-3.6634,-3.674,-3.6741,-3.6741]},{"header":{"parameterUnit":"m.s-1","parameterCategory":1,"la1":30.2991,"la2":30.254,"lo1":-89.0895,"lo2":-89.0444,"dx":0.0017,"dy":0.0017,"nx":28,"ny":28,"refTime":"2023-02-06T15:00:00:Z","depth":0,"parameterNumber":3,"parameterNumberName":"V-component_of_WINDS"},"data":[0,0,0,0,0,0,0,0,0,0,0,0,0,0,0,0,0,0,0,0,0,0,0,0,0,0,0,0,0,0,0,0,0,0,0,0,0,0,0,0,0,0,0,0,0,0,0,0,0,0,0,0,0,0,0,0,0,0,1.2371,1.2372,0,1.2398,1.2398,1.2399,1.2411,1.2411,1.2411,1.2411,1.2436,1.2437,1.2438,0,0,0,0,0,0,0,0,0,0,0,0,0,1.2331,1.2331,1.2371,1.2372,1.2372,1.2398,1.2398,1.2399,1.2411,1.2411,1.2411,1.2411,1.2436,1.2437,1.2438,0,0,0,0,0,0,0,0,0,0,0,0,0,1.2352,1.2332,1.2371,1.2381,1.2382,1.2398,1.2398,1.2399,1.2411,1.2411,1.2411,1.2411,1.2436,1.2437,1.2438,1.2445,0,0,1.2441,1.2442,0,0,0,0,0,0,0,0,1.2351,1.2353,1.2379,1.2381,1.2382,1.2401,1.2394,1.2414,1.2411,1.24,1.2411,1.241,1.2424,1.2426,1.2432,1.2446,1.2448,1.2441,1.2442,1.2442,1.2443,0,0,0,0,0,0,0,1.2349,1.2352,1.2382,1.238,1.2381,1.2384,1.2387,1.2398,1.2412,1.2401,1.2402,1.2405,1.2425,1.243,1.2432,1.2448,1.2441,1.2442,1.2443,1.2443,1.2472,1.2472,0,0,0,0,0,0,1.2346,1.2351,1.2381,1.2383,1.2366,1.2385,1.2388,1.2395,1.2412,1.2415,1.2405,1.2405,1.2429,1.2431,1.2433,1.2444,1.2442,1.2443,1.2444,1.2472,1.2472,1.2472,0,0,0,0,0,0,1.2345,1.2349,1.238,1.2367,1.2371,1.2386,1.2393,1.2395,1.2401,1.2415,1.2418,1.2408,1.2429,1.2432,1.2443,1.2445,1.2444,1.2445,1.2472,1.2472,1.2472,1.2465,0,0,0,0,0,0,1.2344,1.2348,1.2351,1.2367,1.2372,1.2389,1.2393,1.2396,1.2403,1.2404,1.2418,1.2421,1.2429,1.2441,1.2444,1.2447,1.2446,1.2472,1.2472,1.2472,1.2465,1.2465,1.2465,0,0,0,0,0,1.2343,1.2348,1.2351,1.2355,1.2376,1.2389,1.2392,1.2402,1.2403,1.2406,1.2416,1.242,1.2444,1.2442,1.2445,1.2448,1.2472,1.2472,1.2472,1.2466,1.2465,1.2465,0,0,0,0,0,0,1.233,1.235,1.2354,1.2364,1.2375,1.2391,1.2395,1.2401,1.2411,1.2411,1.2423,1.2426,1.2436,1.2443,1.244,1.2457,1.2459,1.2459,1.2452,1.2452,1.2452,1.245,1.2447,0,0,0,0,0,1.2329,1.2339,1.2355,1.2362,1.2367,1.2381,1.2387,1.2393,1.2405,1.2409,1.2419,1.243,1.244,1.2447,1.2457,1.2467,1.2471,1.2471,1.247,1.247,1.2471,1.2478,1.2479,1.2473,1.2473,1.2473,0,0,1.2326,1.2338,1.2343,1.236,1.2369,1.2379,1.2384,1.2394,1.2401,1.241,1.2422,1.243,1.2443,1.2454,1.2459,1.246,1.2474,1.2471,1.247,1.2471,1.2479,1.2479,1.248,1.2474,1.2474,1.2473,0,0,1.2326,1.2335,1.2343,1.2353,1.2367,1.2376,1.2378,1.2394,1.24,1.2412,1.2419,1.2428,1.2445,1.2455,1.2461,1.2467,1.2472,1.247,1.2469,1.2476,1.2477,1.2477,1.248,1.2481,1.247,1.247,1.247,0,1.232,1.2335,1.2346,1.2356,1.2364,1.2374,1.2383,1.2391,1.2408,1.2413,1.2414,1.2437,1.2446,1.246,1.2462,1.2467,1.247,1.2468,1.2476,1.2476,1.2477,1.248,1.2481,1.247,1.247,1.247,1.247,0,1.2328,1.2338,1.2343,1.236,1.2369,1.2378,1.2391,1.2398,1.2404,1.2413,1.2426,1.2438,1.2451,1.2455,1.2461,1.247,1.2471,1.2473,1.2475,1.2477,1.248,1.2481,1.247,1.247,1.247,1.247,0,0,1.2319,1.2344,1.2346,1.2355,1.2372,1.238,1.239,1.2404,1.2411,1.2422,1.2431,1.2446,1.245,1.2458,1.2465,1.2471,1.2476,1.2473,1.2474,1.2474,1.2488,1.2487,1.2488,1.248,1.248,1.248,1.2488,0,1.2322,1.2341,1.2352,1.2367,1.2377,1.2388,1.2397,1.2409,1.2418,1.2428,1.2438,1.2449,1.2452,1.2457,1.2464,1.2474,1.2479,1.2473,1.2488,1.2489,1.2485,1.2489,1.2487,1.2493,1.2489,1.2489,1.2489,0,1.2327,1.234,1.2356,1.2374,1.2379,1.2386,1.2401,1.2411,1.2425,1.2431,1.2441,1.2449,1.246,1.2461,1.2477,1.2473,1.248,1.2486,1.2487,1.2489,1.2489,1.2492,1.2496,1.2497,1.2491,1.2491,1.2491,0,1.2321,1.2342,1.2354,1.2361,1.2382,1.2388,1.2397,1.2411,1.2419,1.2432,1.2438,1.2451,1.2459,1.2469,1.248,1.248,1.2496,1.2497,1.2502,1.2502,1.2505,1.2505,1.2511,1.2509,1.2509,1.2509,1.2509,0,1.2323,1.2332,1.2352,1.236,1.2371,1.2384,1.2395,1.2405,1.2418,1.2428,1.2437,1.2447,1.2461,1.2472,1.2481,1.2494,1.2497,1.2503,1.2505,1.2502,1.2502,1.2507,1.2507,1.2509,1.2509,1.2509,1.2509,0,1.2317,1.2331,1.2345,1.2365,1.237,1.2377,1.2394,1.2402,1.2413,1.2425,1.2429,1.2445,1.2459,1.2471,1.2489,1.2495,1.2509,1.2511,1.2504,1.2506,1.251,1.251,1.252,1.2522,1.2518,1.2518,1.2518,0,1.2317,1.2325,1.2346,1.2354,1.2363,1.2376,1.2385,1.2398,1.2407,1.2425,1.2431,1.2446,1.2459,1.248,1.2493,1.2508,1.2511,1.2514,1.2513,1.251,1.2512,1.2512,1.2513,1.2513,1.2513,1.2513,1.2513,0,1.2317,1.2324,1.2337,1.2353,1.2364,1.2376,1.239,1.2395,1.2412,1.2421,1.2436,1.2446,1.2466,1.248,1.2497,1.2506,1.2513,1.2514,1.2516,1.2513,1.2509,1.2512,1.2505,1.2513,1.2513,1.2513,1.2513,1.2513,1.2315,1.2323,1.234,1.2354,1.2366,1.2379,1.2388,1.24,1.2413,1.243,1.2438,1.2453,1.2468,1.2491,1.25,1.2512,1.2514,1.2516,1.2517,1.2518,1.2517,1.2507,1.2515,1.2515,1.2515,1.2515,1.2515,0,1.2316,1.2328,1.2341,1.236,1.2372,1.2378,1.2394,1.2403,1.2417,1.2431,1.2443,1.2461,1.2476,1.2491,1.2507,1.2514,1.2518,1.2518,1.2517,1.252,1.2515,1.2512,1.2515,1.2515,1.2515,1.2515,1.2515,1.2515,1.2318,1.2333,1.2342,1.2363,1.2374,1.239,1.2398,1.241,1.2422,1.2442,1.2454,1.2464,1.2479,1.2497,1.2511,1.2515,1.252,1.252,1.2525,1.252,1.252,1.252,1.2517,1.2521,1.2521,1.2529,1.2529,1.2529]}]]